Time,TemperatureF,DewpointF,PressureIn,WindDirection,WindDirectionDegrees,WindSpeedMPH,WindSpeedGustMPH,Humidity,HourlyPrecipIn,Conditions,Clouds,dailyrainin,SolarRadiationWatts/m^2,SoftwareType,DateUTC
2013-05-27 00:21:00,34.0,31.0,-100.00,West,274,0.0,7.0,90,0.00,,,0.16,0.000000,,2013-05-27 07:21:00,
2013-05-27 00:31:00,34.0,31.0,-100.00,West,274,0.0,7.0,90,0.00,,,0.16,0.000000,,2013-05-27 07:31:00,
2013-05-27 00:41:00,34.0,31.0,-100.00,West,274,0.0,7.0,90,0.00,,,0.16,0.000000,,2013-05-27 07:41:00,
2013-05-27 00:52:00,34.0,31.0,-100.00,West,274,0.0,7.0,90,0.00,,,0.16,0.000000,,2013-05-27 07:52:00,
2013-05-27 01:21:00,32.0,30.0,-100.00,West,275,1.0,6.0,94,0.00,,,0.12,0.000000,,2013-05-27 08:21:00,
2013-05-27 01:32:00,32.0,30.0,-100.00,West,275,1.0,6.0,94,0.00,,,0.12,0.000000,,2013-05-27 08:32:00,
2013-05-27 01:42:00,32.0,30.0,-100.00,West,275,1.0,6.0,94,0.00,,,0.12,0.000000,,2013-05-27 08:42:00,
2013-05-27 01:52:00,32.0,30.0,-100.00,West,275,1.0,6.0,94,0.00,,,0.12,0.000000,,2013-05-27 08:52:00,
2013-05-27 02:21:00,32.0,30.0,-100.00,West,262,0.0,5.0,94,0.00,,,0.09,0.000000,,2013-05-27 09:21:00,
2013-05-27 02:33:00,32.0,30.0,-100.00,West,262,0.0,5.0,94,0.00,,,0.09,0.000000,,2013-05-27 09:33:00,
2013-05-27 02:42:00,32.0,30.0,-100.00,West,262,0.0,5.0,94,0.00,,,0.09,0.000000,,2013-05-27 09:42:00,
2013-05-27 02:52:00,32.0,30.0,-100.00,West,262,0.0,5.0,94,0.00,,,0.09,0.000000,,2013-05-27 09:52:00,
2013-05-27 03:22:00,33.0,32.0,-100.00,ESE,102,0.0,4.0,95,0.00,,,0.06,0.000000,,2013-05-27 10:22:00,
2013-05-27 03:32:00,33.0,32.0,-100.00,ESE,102,0.0,4.0,95,0.00,,,0.06,0.000000,,2013-05-27 10:32:00,
2013-05-27 03:42:00,33.0,32.0,-100.00,ESE,102,0.0,4.0,95,0.00,,,0.06,0.000000,,2013-05-27 10:42:00,
2013-05-27 03:52:00,33.0,32.0,-100.00,ESE,102,0.0,4.0,95,0.00,,,0.06,0.000000,,2013-05-27 10:52:00,
2013-05-27 04:21:00,34.0,33.0,-100.00,West,281,0.0,4.0,96,0.00,,,-99.99,0.000000,,2013-05-27 11:21:00,
2013-05-27 04:32:00,34.0,33.0,-100.00,West,281,0.0,4.0,96,0.00,,,-99.99,0.000000,,2013-05-27 11:32:00,
2013-05-27 04:42:00,34.0,33.0,-100.00,West,281,0.0,4.0,96,0.00,,,-99.99,0.000000,,2013-05-27 11:42:00,
2013-05-27 04:51:00,34.0,33.0,-100.00,West,281,0.0,4.0,96,0.00,,,-99.99,0.000000,,2013-05-27 11:51:00,
2013-05-27 05:21:00,35.0,34.0,-100.00,WNW,288,0.0,8.0,95,0.01,,,0.03,0.000000,,2013-05-27 12:21:00,
2013-05-27 05:32:00,35.0,34.0,-100.00,WNW,288,0.0,8.0,95,0.01,,,0.03,0.000000,,2013-05-27 12:32:00,
2013-05-27 05:42:00,35.0,34.0,-100.00,WNW,288,0.0,8.0,95,0.01,,,0.03,0.000000,,2013-05-27 12:42:00,
2013-05-27 05:52:00,35.0,34.0,-100.00,WNW,288,0.0,8.0,95,0.01,,,0.03,0.000000,,2013-05-27 12:52:00,
2013-05-27 06:21:00,37.0,35.0,-100.00,ESE,111,0.0,6.0,92,0.02,,,0.05,0.000000,,2013-05-27 13:21:00,
2013-05-27 06:32:00,37.0,35.0,-100.00,ESE,111,0.0,6.0,92,0.02,,,0.05,0.000000,,2013-05-27 13:32:00,
2013-05-27 06:41:00,37.0,35.0,-100.00,ESE,111,0.0,6.0,92,0.02,,,0.05,0.000000,,2013-05-27 13:41:00,
2013-05-27 06:52:00,37.0,35.0,-100.00,ESE,111,0.0,6.0,92,0.02,,,0.05,0.000000,,2013-05-27 13:52:00,
2013-05-27 07:21:00,36.0,34.0,-100.00,North,354,0.0,10.0,93,0.05,,,0.10,13.000000,,2013-05-27 14:21:00,
2013-05-27 07:32:00,36.0,34.0,-100.00,North,354,0.0,10.0,93,0.05,,,0.10,13.000000,,2013-05-27 14:32:00,
2013-05-27 07:42:00,36.0,34.0,-100.00,North,354,0.0,10.0,93,0.05,,,0.10,13.000000,,2013-05-27 14:42:00,
2013-05-27 07:51:00,36.0,34.0,-100.00,North,354,0.0,10.0,93,0.05,,,0.10,13.000000,,2013-05-27 14:51:00,
2013-05-27 08:21:00,37.0,35.0,-100.00,NW,322,0.0,7.0,93,0.05,,,-99.99,56.000000,,2013-05-27 15:21:00,
2013-05-27 08:33:00,37.0,35.0,-100.00,NW,322,0.0,7.0,93,0.05,,,-99.99,56.000000,,2013-05-27 15:33:00,
2013-05-27 08:43:00,37.0,35.0,-100.00,NW,322,0.0,7.0,93,0.05,,,-99.99,56.000000,,2013-05-27 15:43:00,
2013-05-27 08:53:00,37.0,35.0,-100.00,NW,322,0.0,7.0,93,0.05,,,-99.99,56.000000,,2013-05-27 15:53:00,
2013-05-27 09:23:00,39.0,37.0,-100.00,NW,305,1.0,8.0,91,0.06,,,0.20,91.000000,,2013-05-27 16:23:00,
2013-05-27 09:33:00,39.0,37.0,-100.00,NW,305,1.0,8.0,91,0.06,,,0.20,91.000000,,2013-05-27 16:33:00,
2013-05-27 09:42:00,39.0,37.0,-100.00,NW,305,1.0,8.0,91,0.06,,,0.20,91.000000,,2013-05-27 16:42:00,
2013-05-27 09:52:00,39.0,37.0,-100.00,NW,305,1.0,8.0,91,0.06,,,0.20,91.000000,,2013-05-27 16:52:00,
2013-05-27 10:22:00,41.0,38.0,-100.00,North,359,0.0,6.0,88,0.04,,,0.24,187.000000,,2013-05-27 17:22:00,
2013-05-27 10:32:00,41.0,38.0,-100.00,North,359,0.0,6.0,88,0.04,,,0.24,187.000000,,2013-05-27 17:32:00,
2013-05-27 10:43:00,41.0,38.0,-100.00,North,359,0.0,6.0,88,0.04,,,0.24,187.000000,,2013-05-27 17:43:00,
2013-05-27 10:52:00,41.0,38.0,-100.00,North,359,0.0,6.0,88,0.04,,,0.24,187.000000,,2013-05-27 17:52:00,
2013-05-27 11:21:00,43.0,39.0,-100.00,WNW,300,1.0,8.0,87,0.03,,,0.27,263.000000,,2013-05-27 18:21:00,
2013-05-27 11:32:00,43.0,39.0,-100.00,WNW,300,1.0,8.0,87,0.03,,,0.27,263.000000,,2013-05-27 18:32:00,
2013-05-27 11:42:00,43.0,39.0,-100.00,WNW,300,1.0,8.0,87,0.03,,,0.27,263.000000,,2013-05-27 18:42:00,
2013-05-27 11:52:00,43.0,39.0,-100.00,WNW,300,1.0,8.0,87,0.03,,,0.27,263.000000,,2013-05-27 18:52:00,
2013-05-27 12:21:00,46.0,42.0,-100.00,NNW,342,1.0,9.0,86,0.04,,,0.31,427.000000,,2013-05-27 19:21:00,
2013-05-27 12:32:00,46.0,42.0,-100.00,NNW,342,1.0,9.0,86,0.04,,,0.31,427.000000,,2013-05-27 19:32:00,
2013-05-27 12:41:00,46.0,42.0,-100.00,NNW,342,1.0,9.0,86,0.04,,,0.31,427.000000,,2013-05-27 19:41:00,
2013-05-27 12:52:00,46.0,42.0,-100.00,NNW,342,1.0,9.0,86,0.04,,,0.31,427.000000,,2013-05-27 19:52:00,
2013-05-27 13:22:00,47.0,41.0,-100.00,WNW,289,4.0,13.0,81,0.01,,,0.32,526.000000,,2013-05-27 20:22:00,
2013-05-27 13:32:00,47.0,41.0,-100.00,WNW,289,4.0,13.0,81,0.01,,,0.32,526.000000,,2013-05-27 20:32:00,
2013-05-27 13:42:00,47.0,41.0,-100.00,WNW,289,4.0,13.0,81,0.01,,,0.32,526.000000,,2013-05-27 20:42:00,
2013-05-27 13:52:00,47.0,41.0,-100.00,WNW,289,4.0,13.0,81,0.01,,,0.32,526.000000,,2013-05-27 20:52:00,
2013-05-27 14:21:00,48.0,44.0,-100.00,WSW,244,1.0,12.0,85,0.05,,,0.37,425.000000,,2013-05-27 21:21:00,
2013-05-27 14:33:00,48.0,44.0,-100.00,WSW,244,1.0,12.0,85,0.05,,,0.37,425.000000,,2013-05-27 21:33:00,
2013-05-27 14:43:00,48.0,44.0,-100.00,WSW,244,1.0,12.0,85,0.05,,,0.37,425.000000,,2013-05-27 21:43:00,
2013-05-27 14:53:00,48.0,44.0,-100.00,WSW,244,1.0,12.0,85,0.05,,,0.37,425.000000,,2013-05-27 21:53:00,
2013-05-27 15:22:00,50.0,44.0,-100.00,WNW,284,1.0,16.0,80,0.02,,,0.39,695.000000,,2013-05-27 22:22:00,
2013-05-27 15:32:00,50.0,44.0,-100.00,WNW,284,1.0,16.0,80,0.02,,,0.39,695.000000,,2013-05-27 22:32:00,
2013-05-27 15:42:00,50.0,44.0,-100.00,WNW,284,1.0,16.0,80,0.02,,,0.39,695.000000,,2013-05-27 22:42:00,
2013-05-27 15:52:00,50.0,44.0,-100.00,WNW,284,1.0,16.0,80,0.02,,,0.39,695.000000,,2013-05-27 22:52:00,
2013-05-27 16:22:00,48.0,42.0,-100.00,West,278,3.0,12.0,81,0.03,,,0.42,478.000000,,2013-05-27 23:22:00,
2013-05-27 16:32:00,48.0,42.0,-100.00,West,278,3.0,12.0,81,0.03,,,0.42,478.000000,,2013-05-27 23:32:00,
2013-05-27 16:42:00,48.0,42.0,-100.00,West,278,3.0,12.0,81,0.03,,,0.42,478.000000,,2013-05-27 23:42:00,
2013-05-27 16:52:00,48.0,42.0,-100.00,West,278,3.0,12.0,81,0.03,,,0.42,478.000000,,2013-05-27 23:52:00,
2013-05-27 17:21:00,48.0,42.0,-100.00,NNW,342,3.0,16.0,81,0.03,,,-99.99,494.000000,,2013-05-28 00:21:00,
2013-05-27 17:31:00,48.0,42.0,-100.00,NNW,342,3.0,16.0,81,0.03,,,-99.99,494.000000,,2013-05-28 00:31:00,
2013-05-27 17:41:00,48.0,42.0,-100.00,NNW,342,3.0,16.0,81,0.03,,,-99.99,494.000000,,2013-05-28 00:41:00,
2013-05-27 17:51:00,48.0,42.0,-100.00,NNW,342,3.0,16.0,81,0.03,,,-99.99,494.000000,,2013-05-28 00:51:00,
2013-05-27 18:21:00,44.0,40.0,-100.00,WNW,293,1.0,11.0,86,0.08,,,0.53,189.000000,,2013-05-28 01:21:00,
2013-05-27 18:31:00,44.0,40.0,-100.00,WNW,293,1.0,11.0,86,0.08,,,0.53,189.000000,,2013-05-28 01:31:00,
2013-05-27 18:41:00,44.0,40.0,-100.00,WNW,293,1.0,11.0,86,0.08,,,0.53,189.000000,,2013-05-28 01:41:00,
2013-05-27 18:52:00,44.0,40.0,-100.00,WNW,293,1.0,11.0,86,0.08,,,0.53,189.000000,,2013-05-28 01:52:00,
2013-05-27 19:21:00,43.0,39.0,-100.00,ESE,122,1.0,12.0,87,0.01,,,0.53,119.000000,,2013-05-28 02:21:00,
2013-05-27 19:32:00,43.0,39.0,-100.00,ESE,122,1.0,12.0,87,0.01,,,0.53,119.000000,,2013-05-28 02:32:00,
2013-05-27 19:41:00,43.0,39.0,-100.00,ESE,122,1.0,12.0,87,0.01,,,0.53,119.000000,,2013-05-28 02:41:00,
2013-05-27 19:51:00,43.0,39.0,-100.00,ESE,122,1.0,12.0,87,0.01,,,0.53,119.000000,,2013-05-28 02:51:00,
2013-05-27 20:21:00,42.0,39.0,-100.00,NW,305,1.0,13.0,90,0.08,,,-99.99,72.000000,,2013-05-28 03:21:00,
2013-05-27 20:33:00,42.0,39.0,-100.00,NW,305,1.0,13.0,90,0.08,,,-99.99,72.000000,,2013-05-28 03:33:00,
2013-05-27 20:43:00,42.0,39.0,-100.00,NW,305,1.0,13.0,90,0.08,,,-99.99,72.000000,,2013-05-28 03:43:00,
2013-05-27 20:53:00,42.0,39.0,-100.00,NW,305,1.0,13.0,90,0.08,,,-99.99,72.000000,,2013-05-28 03:53:00,
2013-05-27 21:22:00,40.0,38.0,-100.00,NNE,23,0.0,6.0,91,0.09,,,0.70,12.000000,,2013-05-28 04:22:00,
2013-05-27 21:33:00,40.0,38.0,-100.00,NNE,23,0.0,6.0,91,0.09,,,0.70,12.000000,,2013-05-28 04:33:00,
2013-05-27 21:42:00,40.0,38.0,-100.00,NNE,23,0.0,6.0,91,0.09,,,0.70,12.000000,,2013-05-28 04:42:00,
2013-05-27 21:52:00,40.0,38.0,-100.00,NNE,23,0.0,6.0,91,0.09,,,0.70,12.000000,,2013-05-28 04:52:00,
2013-05-27 22:22:00,39.0,37.0,-100.00,SSW,210,0.0,10.0,93,0.02,,,0.72,0.000000,,2013-05-28 05:22:00,
2013-05-27 22:32:00,39.0,37.0,-100.00,SSW,210,0.0,10.0,93,0.02,,,0.72,0.000000,,2013-05-28 05:32:00,
2013-05-27 22:42:00,39.0,37.0,-100.00,SSW,210,0.0,10.0,93,0.02,,,0.72,0.000000,,2013-05-28 05:42:00,
2013-05-27 22:52:00,39.0,37.0,-100.00,SSW,210,0.0,10.0,93,0.02,,,0.72,0.000000,,2013-05-28 05:52:00,
2013-05-27 23:21:00,37.0,35.0,-100.00,North,355,0.0,6.0,94,0.07,,,0.79,0.000000,,2013-05-28 06:21:00,
2013-05-27 23:31:00,37.0,35.0,-100.00,North,355,0.0,6.0,94,0.07,,,0.79,0.000000,,2013-05-28 06:31:00,
2013-05-27 23:41:00,37.0,35.0,-100.00,North,355,0.0,6.0,94,0.07,,,0.79,0.000000,,2013-05-28 06:41:00,
2013-05-27 23:51:00,37.0,35.0,-100.00,North,355,0.0,6.0,94,0.07,,,0.79,0.000000,,2013-05-28 06:51:00,